• In Russia
  • List of Countries
  • For 7 days
  • Water Temperature
  • Satellite Maps
  • Weather Map
  • Weather Widgets
  • user-avatar
    Login

    Hourly Weather Pilisvorosvar

    Today, 22 February, Thursday

    Time Temperature Precipitation Wind Pressure Humidity
    00:00 -2°C° 0 mm 3 mps 744 mmHg 85%
    01:00 -2°C° 0 mm 3 mps 744 mmHg 83%
    02:00 -4°C° 0 mm 3 mps 743 mmHg 82%
    03:00 -4°C° 0 mm 3 mps 743 mmHg 82%
    04:00 -5°C° 0 mm 3 mps 743 mmHg 82%
    05:00 -5°C° 0 mm 3 mps 743 mmHg 81%
    06:00 -5°C° 0 mm 3 mps 743 mmHg 81%
    07:00 -5°C° 0 mm 3 mps 743 mmHg 80%
    08:00 -4°C° 0 mm 4 mps 743 mmHg 78%
    09:00 -3°C° 0 mm 4 mps 743 mmHg 76%
    10:00 -2°C° 0 mm 4 mps 743 mmHg 74%
    11:00 -1°C° 0 mm 4 mps 743 mmHg 74%
    12:00 0°C° 0 mm 4 mps 743 mmHg 74%
    13:00 0°C° 0 mm 4 mps 743 mmHg 74%
    14:00 +1°C° 0.1 mm 3 mps 743 mmHg 76%
    15:00 +1°C° 0.1 mm 3 mps 743 mmHg 78%
    16:00 +2°C° 0.1 mm 2 mps 743 mmHg 80%
    17:00 +2°C° 0.1 mm 2 mps 743 mmHg 81%
    18:00 +1°C° 0.1 mm 2 mps 743 mmHg 81%
    19:00 0°C° 0.1 mm 3 mps 744 mmHg 82%
    20:00 0°C° 0 mm 3 mps 744 mmHg 82%
    21:00 -1°C° 0 mm 3 mps 744 mmHg 82%
    22:00 -1°C° 0 mm 3 mps 744 mmHg 82%
    23:00 -1°C° 0 mm 3 mps 744 mmHg 83%

    Tomorrow, 23 February, Friday

    Time Temperature Precipitation Wind Pressure Humidity
    00:00 -1°C° 0 mm 2 mps 744 mmHg 83%
    01:00 -2°C° 0 mm 2 mps 744 mmHg 84%
    02:00 -2°C° 0 mm 2 mps 744 mmHg 83%
    03:00 -2°C° 0 mm 2 mps 744 mmHg 83%
    04:00 -2°C° 0 mm 2 mps 744 mmHg 83%
    05:00 -2°C° 0 mm 2 mps 744 mmHg 83%
    06:00 -2°C° 0 mm 2 mps 744 mmHg 83%
    07:00 -2°C° 0 mm 2 mps 744 mmHg 83%
    08:00 -1°C° 0 mm 2 mps 745 mmHg 80%
    09:00 +1°C° 0 mm 2 mps 745 mmHg 77%
    10:00 0°C° 0 mm 3 mps 745 mmHg 74%
    11:00 +1°C° 0 mm 3 mps 745 mmHg 73%
    12:00 +3°C° 0 mm 2 mps 745 mmHg 71%
    13:00 +3°C° 0 mm 2 mps 745 mmHg 70%
    14:00 +3°C° 0 mm 2 mps 745 mmHg 71%
    15:00 +3°C° 0 mm 2 mps 745 mmHg 72%
    16:00 +3°C° 0 mm 2 mps 745 mmHg 74%
    17:00 +2°C° 0 mm 2 mps 745 mmHg 76%
    18:00 +1°C° 0 mm 2 mps 745 mmHg 78%
    19:00 -1°C° 0 mm 2 mps 746 mmHg 80%
    20:00 -1°C° 0 mm 2 mps 746 mmHg 79%
    21:00 -1°C° 0 mm 2 mps 746 mmHg 78%
    22:00 -2°C° 0 mm 3 mps 746 mmHg 78%
    23:00 -2°C° 0 mm 2 mps 746 mmHg 77%

    Day after tomorrow, 24 February, Saturday

    Time Temperature Precipitation Wind Pressure Humidity
    00:00 -3°C° 0 mm 2 mps 746 mmHg 76%
    01:00 -3°C° 0 mm 2 mps 746 mmHg 75%
    02:00 -3°C° 0 mm 2 mps 746 mmHg 74%
    03:00 -3°C° 0 mm 2 mps 746 mmHg 73%
    04:00 -3°C° 0 mm 2 mps 746 mmHg 72%
    05:00 -3°C° 0 mm 2 mps 746 mmHg 72%
    06:00 -3°C° 0 mm 2 mps 746 mmHg 72%
    07:00 -3°C° 0 mm 2 mps 746 mmHg 71%
    08:00 -3°C° 0 mm 2 mps 747 mmHg 66%
    09:00 -2°C° 0 mm 2 mps 747 mmHg 60%
    10:00 -1°C° 0 mm 2 mps 747 mmHg 54%
    11:00 +1°C° 0 mm 2 mps 747 mmHg 51%
    12:00 +1°C° 0 mm 2 mps 746 mmHg 48%
    13:00 +2°C° 0 mm 2 mps 746 mmHg 45%
    14:00 +2°C° 0 mm 2 mps 746 mmHg 46%
    15:00 +2°C° 0 mm 2 mps 746 mmHg 47%
    16:00 +2°C° 0 mm 2 mps 746 mmHg 48%
    17:00 +1°C° 0 mm 2 mps 746 mmHg 52%
    18:00 -1°C° 0 mm 2 mps 746 mmHg 56%
    19:00 -4°C° 0 mm 3 mps 747 mmHg 61%
    20:00 -4°C° 0 mm 4 mps 747 mmHg 60%
    21:00 -5°C° 0 mm 4 mps 748 mmHg 59%
    22:00 -6°C° 0 mm 5 mps 748 mmHg 58%
    23:00 -7°C° 0 mm 5 mps 748 mmHg 56%

    25 February, Sunday

    Time Temperature Precipitation Wind Pressure Humidity
    00:00 -7°C° 0 mm 5 mps 748 mmHg 54%
    01:00 -7°C° 0 mm 5 mps 748 mmHg 52%
    02:00 -8°C° 0 mm 5 mps 748 mmHg 51%
    03:00 -8°C° 0 mm 5 mps 749 mmHg 50%
    04:00 -10°C° 0 mm 5 mps 749 mmHg 48%
    05:00 -10°C° 0 mm 5 mps 749 mmHg 47%
    06:00 -10°C° 0 mm 5 mps 749 mmHg 46%
    07:00 -9°C° 0 mm 4 mps 750 mmHg 44%
    08:00 -10°C° 0 mm 5 mps 750 mmHg 41%
    09:00 -8°C° 0 mm 5 mps 750 mmHg 38%
    10:00 -8°C° 0 mm 5 mps 750 mmHg 35%
    11:00 -7°C° 0 mm 5 mps 750 mmHg 33%
    12:00 -6°C° 0 mm 5 mps 749 mmHg 32%
    13:00 -6°C° 0 mm 5 mps 749 mmHg 30%
    14:00 -6°C° 0 mm 5 mps 749 mmHg 31%
    15:00 -6°C° 0 mm 5 mps 749 mmHg 32%
    16:00 -6°C° 0 mm 5 mps 749 mmHg 33%
    17:00 -7°C° 0 mm 5 mps 749 mmHg 37%
    18:00 -7°C° 0 mm 5 mps 749 mmHg 41%
    19:00 -8°C° 0 mm 5 mps 749 mmHg 44%
    20:00 -10°C° 0 mm 5 mps 749 mmHg 45%
    21:00 -10°C° 0 mm 5 mps 749 mmHg 45%
    22:00 -10°C° 0 mm 6 mps 749 mmHg 45%
    23:00 -11°C° 0 mm 5 mps 749 mmHg 45%

    26 February, Monday

    Time Temperature Precipitation Wind Pressure Humidity
    00:00 -11°C° 0 mm 5 mps 748 mmHg 46%
    01:00 -11°C° 0 mm 5 mps 748 mmHg 46%
    02:00 -11°C° 0 mm 5 mps 748 mmHg 46%
    03:00 -11°C° 0 mm 5 mps 748 mmHg 45%
    04:00 -12°C° 0 mm 5 mps 747 mmHg 45%
    05:00 -12°C° 0 mm 5 mps 747 mmHg 45%
    06:00 -12°C° 0 mm 5 mps 747 mmHg 45%
    07:00 -12°C° 0 mm 5 mps 747 mmHg 45%
    08:00 -11°C° 0 mm 5 mps 747 mmHg 44%
    09:00 -11°C° 0 mm 5 mps 746 mmHg 42%
    10:00 -10°C° 0 mm 5 mps 746 mmHg 40%
    11:00 -8°C° 0 mm 5 mps 746 mmHg 39%
    12:00 -7°C° 0 mm 5 mps 745 mmHg 37%
    13:00 -6°C° 0 mm 5 mps 745 mmHg 36%
    14:00 -6°C° 0 mm 5 mps 744 mmHg 36%
    15:00 -6°C° 0 mm 5 mps 744 mmHg 37%
    16:00 -6°C° 0 mm 5 mps 744 mmHg 37%
    17:00 -7°C° 0 mm 5 mps 743 mmHg 40%
    18:00 -7°C° 0 mm 5 mps 743 mmHg 42%
    19:00 -8°C° 0 mm 5 mps 743 mmHg 45%
    20:00 -8°C° 0 mm 5 mps 743 mmHg 46%
    21:00 -8°C° 0 mm 5 mps 742 mmHg 47%
    22:00 -10°C° 0 mm 5 mps 742 mmHg 48%
    23:00 -10°C° 0.1 mm 5 mps 742 mmHg 50%

    27 February, Tuesday

    Time Temperature Precipitation Wind Pressure Humidity
    00:00 -10°C° 0.1 mm 5 mps 741 mmHg 53%
    01:00 -10°C° 0.1 mm 5 mps 741 mmHg 55%
    02:00 -10°C° 0.1 mm 4 mps 740 mmHg 57%
    03:00 -10°C° 0.1 mm 4 mps 740 mmHg 59%
    04:00 -10°C° 0.1 mm 4 mps 739 mmHg 60%
    05:00 -10°C° 0.1 mm 4 mps 739 mmHg 62%
    06:00 -10°C° 0.1 mm 4 mps 739 mmHg 64%
    07:00 -10°C° 0.1 mm 4 mps 739 mmHg 66%
    08:00 -10°C° 0.1 mm 4 mps 739 mmHg 65%
    09:00 -9°C° 0.1 mm 4 mps 739 mmHg 64%
    10:00 -9°C° 0.1 mm 4 mps 739 mmHg 63%
    11:00 -8°C° 0.1 mm 4 mps 738 mmHg 62%
    12:00 -8°C° 0.1 mm 4 mps 738 mmHg 61%
    13:00 -6°C° 0.1 mm 3 mps 738 mmHg 59%
    14:00 -6°C° 0.1 mm 3 mps 738 mmHg 60%
    15:00 -6°C° 0.1 mm 3 mps 738 mmHg 61%
    16:00 -6°C° 0.1 mm 3 mps 738 mmHg 62%
    17:00 -5°C° 0.1 mm 2 mps 738 mmHg 65%
    18:00 -5°C° 0.1 mm 2 mps 738 mmHg 68%
    19:00 -6°C° 0.1 mm 2 mps 738 mmHg 71%
    20:00 -6°C° 0.1 mm 2 mps 738 mmHg 72%
    21:00 -6°C° 0.1 mm 2 mps 738 mmHg 73%
    22:00 -6°C° 0.1 mm 2 mps 738 mmHg 74%
    23:00 -6°C° 0.1 mm 2 mps 739 mmHg 75%
    Show more